CZ-6A DEB, 54279

Orbit data source: Space-Track

CZ-6A DEB, 54279 is space debris in SSO originally from a launch on Fri, 11 Nov 2022 UTC launched from the Taiyaun Space Center, China (TSC). Debris objects in space refer to the collection of defunct objects orbiting the Earth. Examples of debris include non-operational satellites, rocket bodies, and fragments generated from explosions, collisions, or faulty payload assembly.

Loading next visibility...
Identifier
54279, 2022-151W
Orbit
SSO
Country
Flag of CNCN / PRC
Related business
Manufacturer
SAST
Mission
Spacecraft
Bus & Motor
Unknown
Mass
Unknown
Launch date (UTC)
2022-11-11 (3 years ago)
Launch vehicle
Unknown
Launch site
Taiyaun Space Center, China (TSC)
Object type
Payload
Rocket body
Debris
Shape & HBR
Unknown shape, 0.1 m
Radar Cross Section
Small (<0.1 m²)

Expand to show TLE details & history
Last TLE update: 10 hours ago

TLE from 10 hours ago
0 CZ-6A DEB
1 54279U 22151W   25353.99578894  .00000510  00000-0  18956-3 0  9993
2 54279  98.6203   4.7151 0137792 237.8503 120.9251 14.31354932161476
Epoch: 2025-12-19T23:53Z
TLE epoch observation values (Epoch: 2025-12-19T23:53:56.164Z)
Latitude
0.00005°
Longitude
-82.59786°
Altitude
841.88 km
Speed
7.405 km/s
True Right ascension
00h 18m 51s
True Declination
0° 00' 00"
Sunlit
Object was in daylight at epoch
Visualization orbit readout
Latitude
Unknown
Longitude
Unknown
Altitude
Unknown
Speed
Unknown
Apparent Right ascension
Unknown
Apparent Declination
Unknown
Sunlit
N/A
Visualization observer readout
Local Sidereal Time
08:39:59
Azimuth
Unknown
Elevation
Unknown
Doppler factor
Unknown
Orbital elements
Apogee altitude
883.037 km
Perigee altitude
685.65 km
Semi-major axis
7,162.481 km
Eccentricity
0.01378
Inclination
98.6203°
RAAN
4.7151°
Arg. of periapsis
237.8503°
True anomaly
122.2676°
Mean anomaly
120.9251°
Eccentric anomaly
121.59755°
Mean motion
3.58054 °/min
Orbital period
100.54 mins
BSTAR
0.00018956
Loading maneuver chart data...
Computing Atmospheric mass density...
Loading historical data...
Loading historical data...
Loading historical data...
Loading historical data...
Loading historical data...
Loading historical data...
Loading historical data...

Documentation

Showing up to 5 results
|